SCP
0 0 0 0 0 0 0 -0 0 -0 0 0 0 0 0 0 0 0 0 0 0 0 0 -0 0 0 0 0 0 0 0 0 0 0 0 0 0 0 0 0 0 0 0 0 0 0 0 1 0 0 1 0 0 0
0 0 0 0 0 0 -0 0 0 0 0 -0 -0 0 0 0 0 0 0 0 0 0 0 0 0 0 0 0 0 0 0 0 0 0 0 0 0 0 0 -0 0 0 0 0 0 0 2 1 1 1 0 0 0 1
0 0 0 0 0 0 0 0 0 0 0 -0 -0 0 0 0 0 -0 -0 -0 -0 -0 0 -0 0 0 -0 -0 -0 0 0 0 0 0 -0 0 0 0 0 -0 0 0 0 0 0 1 1 1 1 1 1 0 0 1
0 0 0 0 0 0 0 0 0 0 -0 0 0 0 0 0 -0 0 0 -0 -0 -0 -0 0 -0 -0 -0 -0 -0 0 0 0 0 0 0 -0 -0 0 -0 0 1 0 1 1 2 1 0 0 0 0 1 1 0 1
0 0 0 0 0 0 0 0 0 0 0 0 -0 -0 -0 -0 -0 -0 -0 -0 -0 0 0 -0 -0 0 0 0 0 0 0 0 0 0 0 -0 -0 -0 0 -0 0 0 0 0 1 0 0 0 0 0 0 0 0 0
0 0 0 0 0 0 -0 -0 -0 -0 0 -0 -0 -0 0 -0 0 0 -0 -0 0 -0 0 0 0 0 0 -0 0 0 0 0 0 0 0 0 0 0 0 -0 0 0 0 1 0 0 0 0 0 0 0 0 0 0
0 0 0 0 0 0 0 0 -0 -0 0 0 0 0 0 0 0 0 0 0 0 0 0 0 0 0 0 -0 -0 0 -0 -0 -0 0 0 0 0 0 -0 0 0 0 0 0 0 0 0 0 0 0 0 0 0 0
0 0 0 0 0 0 0 0 0 0 0 0 0 0 0 -0 -0 0 0 0 0 0 0 0 0 0 -0 0 -0 -0 -0 -0 -0 0 0 0 0 0 0 0 0 0 0 0 0 0 0 0 0 0 0 0 0 0
0 0 0 0 0 0 0 0 0 0 0 0 0 0 0 0 0 0 0 0 0 0 0 0 0 0 0 0 0 -0 0 0 0 0 0 0 0 0 0 0 0 0 0 0 0 0 0 0 0 0 0 0 0 0
0 0 0 0 0 0 0 0 0 0 -0 0 0 0 0 0 0 0 0 0 0 0 0 0 0 0 0 0 -0 0 0 0 0 0 0 0 0 0 0 0 0 0 0 0 0 0 0 0 0 0 0 0 0 0
0 0 0 0 0 0 0 0 0 0 0 0 0 0 0 0 0 0 0 0 0 0 0 0 0 0 0 0 0 0 0 0 0 0 0 0 -0 0 0 0 0 0 0 0 0 0 0 0 0 0 0 0 0 -0
0 0 0 0 0 0 0 0 0 0 0 0 0 0 0 0 0 0 0 0 0 0 0 0 0 0 0 0 0 0 0 0 0 0 0 0 0 0 -0 0 0 0 0 0 0 0 0 -0 -0 -0 -0 -0 -0 0
0 0 0 0 0 0 0 0 0 0 0 0 0 0 0 0 0 0 0 0 0 0 0 0 0 0 0 0 0 0 0 0 0 0 0 -0 -0 -0 -0 -0 -0 -0 -0 0 0 0 0 -0 0 0 0 0 0 0
0 0 0 0 0 0 0 0 0 0 0 0 0 0 0 0 0 0 0 0 0 0 0 0 0 0 0 0 0 0 -0 0 0 0 0 -0 0 0 -0 -0 0 0 -0 -0 -0 -0 -0 0 0 0 0 -0 -0 0
0 0 0 0 0 0 0 0 0 0 0 0 0 0 0 0 0 -0 0 0 0 0 0 0 0 0 0 0 0 0 0 0 0 0 0 -0 -0 -0 -0 0 0 0 -0 -0 -0 -0 0 0 0 0 0 0 0 0
0 0 0 0 0 -0 0 0 0 0 0 0 0 0 0 0 -0 -0 -0 -0 0 0 0 0 0 0 0 0 0 0 0 0 0 0 0 -0 -0 -0 -0 -0 0 0 0 -0 -0 0 0 0 -0 -0 0 0 0 0
-0 0 -0 0 -0 -0 0 0 0 0 0 0 0 0 0 0 0 -0 0 0 -0 0 0 0 0 0 0 0 0 0 0 0 0 0 0 0 -0 -0 0 0 0 -0 -0 -0 0 -0 -0 -0 0 0 0 0 -0 0
0 0 0 -0 0 0 0 0 0 0 0 0 0 0 0 0 0 0 0 0 0 0 0 0 0 0 0 0 0 0 0 0 0 0 0 -0 0 -0 -0 -0 -0 -0 -0 0 -0 -0 -0 -0 -0 -0 -0 -0 -0 -0
0 0 -0 -0 0 0 0 0 0 0 0 0 0 0 0 0 0 0 0 -0 -0 -0 0 0 0 0 0 0 0 0 0 0 0 0 0 -0 -0 0 0 0 0 0 -0 -0 -0 0 0 0 0 0 0 0 0 0
0 0 0 -0 0 0 0 0 0 0 0 0 0 0 0 0 0 0 0 0 -0 0 0 0 0 0 0 0 0 0 -0 -0 -0 -0 -0 -0 0 -0 -0 -0 -0 -0 0 0 0 0 0 0 0 0 0 0 0 0
0 0 0 0 0 0 0 0 0 0 0 0 0 0 0 0 0 0 0 0 0 0 0 0 0 0 0 -0 -0 0 -0 -0 -0 -0 -0 -0 -0 0 0 0 0 0 0 0 0 0 0 0 0 0 0 0 0 0
0 0 0 0 0 0 0 0 0 0 0 0 0 0 0 0 0 0 0 0 0 0 0 0 0 0 -0 -0 -0 -0 -0 0 0 -0 -0 -0 0 0 0 0 0 0 0 0 0 0 0 0 0 0 0 0 0 0
0 0 0 0 0 0 0 0 0 0 0 0 0 0 0 0 0 0 0 0 0 0 0 0 -0 -0 -0 0 0 -0 -0 -0 -0 -0 -0 0 0 0 0 0 0 0 0 0 0 0 0 0 0 0 0 0 0 0
0 0 0 0 0 0 0 0 0 0 0 0 0 0 0 0 0 0 -0 0 0 0 -0 -0 -0 -0 0 -0 -0 -0 -0 -0 -0 0 0 0 0 0 0 0 0 0 0 0 0 0 0 0 0 0 0 0 0 0
0 0 0 0 0 0 0 0 0 0 0 0 0 0 0 0 0 0 0 0 0 -0 -0 0 0 0 0 0 0 0 -0 -0 -0 -0 -0 0 0 0 0 0 0 0 0 0 0 0 0 0 0 0 0 0 0 0
0 0 0 0 0 0 0 0 0 0 0 0 0 0 0 0 0 0 -0 0 0 0 0 0 0 0 0 -0 0 0 0 0 0 0 0 0 0 0 0 0 0 0 0 0 0 0 0 0 0 0 0 0 0 0
0 0 0 0 0 0 0 0 0 0 0 0 0 0 0 0 0 0 0 0 0 0 0 0 0 0 0 0 0 0 0 0 0 0 0 0 0 0 0 0 0 0 0 0 0 0 0 0 0 0 0 0 0 0
0 0 0 0 0 0 0 0 0 0 -0 0 0 0 0 0 0 0 0 0 0 0 0 0 0 0 0 0 0 0 0 0 0 0 0 0 0 0 0 0 0 0 0 0 0 0 0 0 0 0 0 0 0 0
0 0 0 0 0 0 0 0 0 0 0 0 0 0 0 0 0 0 0 0 0 0 0 0 0 0 0 0 0 0 0 0 0 0 0 0 0 0 0 0 0 0 0 0 0 0 0 0 0 0 0 0 0 0
0 0 0 0 -0 0 0 0 0 0 0 0 0 0 0 0 0 0 0 0 0 0 0 0 0 0 0 0 0 0 0 0 0 0 0 0 0 0 0 0 0 0 0 0 0 0 0 0 0 0 0 0 0 0
0 0 -0 0 0 0 0 0 0 0 0 0 0 0 -0 -0 0 0 0 0 0 0 0 0 0 0 0 0 0 0 0 0 0 0 0 0 0 0 0 0 0 0 0 0 0 0 0 0 0 0 0 0 0 0
0 0 0 0 0 0 0 0 0 0 0 0 0 0 0 0 0 0 0 0 0 0 0 0 0 0 0 0 0 0 0 0 0 0 0 0 0 0 0 0 0 0 0 0 0 0 0 0 0 0 0 0 0 0
0 -0 0 0 0 0 0 0 0 0 0 0 0 0 0 0 0 0 0 0 0 0 0 0 0 0 0 0 0 0 0 0 0 0 0 0 0 0 0 0 0 0 0 0 0 0 0 0 0 0 0 0 0 0
Wind_Speed_500mb
63 64 61 59 58 56 51 46 40 36 31 29 29 28 27 23 25 26 27 26 38 17 41 59 56 58 53 36 17 20 12 8 7 15 21 29 31 38 41 47 51 45 41 37 37 43 46 14 14 13 15 33 35 33
58 54 50 51 56 52 43 37 34 29 26 26 28 27 20 20 20 22 34 31 24 43 38 45 51 52 42 50 47 35 21 5 9 8 6 12 9 17 37 30 50 45 40 33 36 27 17 21 24 14 16 19 18 13
49 49 47 47 53 42 34 30 26 25 24 27 25 18 23 22 21 26 29 24 29 24 53 56 48 37 42 61 53 37 37 13 8 20 7 6 11 8 13 20 36 13 39 35 22 25 19 27 24 22 21 10 16 24
44 49 42 41 43 39 33 28 23 24 23 21 22 22 19 19 16 17 22 22 23 16 15 27 9 6 15 26 50 53 41 10 15 24 16 6 10 14 5 9 7 11 19 18 33 31 37 33 30 24 21 21 29 34
45 42 37 39 41 39 34 30 25 30 25 24 16 15 15 18 17 19 21 20 24 18 17 43 46 26 27 35 30 45 46 35 27 12 5 6 7 6 11 4 10 14 12 3 15 38 41 35 33 32 37 31 31 32
43 40 39 38 43 41 37 33 28 24 25 16 16 17 13 13 12 17 6 3 9 21 20 10 23 8 6 26 28 33 33 27 15 1 9 13 12 12 7 7 13 16 32 17 24 48 58 47 45 37 34 29 31 29
40 37 39 40 42 41 37 34 28 28 26 22 20 21 16 13 14 15 10 14 19 7 6 10 9 13 14 26 30 25 26 18 13 5 14 7 8 23 5 5 12 16 35 37 40 48 37 24 24 38 36 29 24 25
41 41 40 41 39 36 36 37 37 33 32 27 24 21 21 24 19 12 11 19 10 10 10 6 11 7 34 31 22 29 24 22 20 18 9 1 7 9 3 9 24 27 47 50 44 42 42 35 30 35 40 45 32 33
41 42 42 43 39 39 38 36 38 37 31 24 20 18 11 6 8 7 17 16 11 12 6 6 5 7 25 9 9 32 32 17 16 3 5 4 4 5 12 20 25 21 24 36 45 53 50 48 41 30 37 27 31 25
40 37 38 37 37 39 44 48 48 38 20 18 17 8 7 6 17 19 7 9 8 11 11 7 22 8 22 13 17 18 21 5 3 8 4 5 6 17 19 25 35 38 27 20 31 32 47 57 40 28 31 30 6 22
33 34 37 43 50 56 55 52 45 36 22 15 11 9 19 22 10 7 5 8 12 7 14 9 17 13 21 8 4 11 5 6 1 9 0 5 5 5 33 38 34 38 37 39 41 37 38 43 24 8 8 3 7 7
34 38 44 50 60 62 55 48 42 26 20 17 16 17 15 8 7 7 8 8 6 4 9 4 8 14 7 7 7 7 5 1 8 7 7 4 6 22 23 41 40 35 35 36 29 27 17 11 13 9 10 7 1 6
40 46 47 51 69 66 51 40 36 29 12 6 8 9 13 9 5 10 11 1 8 18 18 15 10 9 8 13 10 11 10 6 15 7 7 3 13 14 23 27 22 23 21 21 23 16 10 11 15 17 14 9 12 10
43 46 43 59 71 62 44 36 31 16 10 6 10 9 8 8 8 8 18 15 15 17 18 7 10 7 21 2 7 14 11 8 6 7 4 8 17 13 17 23 27 22 16 19 20 20 16 16 21 18 19 17 15 14
46 42 46 62 62 49 40 28 29 20 11 9 9 11 8 18 32 33 27 32 32 30 24 10 10 16 12 10 7 9 10 9 11 5 9 25 23 13 16 19 20 19 15 18 18 19 17 16 18 20 21 17 14 13
48 27 39 57 55 39 38 20 23 12 4 4 3 8 15 23 33 43 44 43 39 30 16 3 10 7 16 10 14 16 8 7 8 5 24 23 29 20 14 16 24 21 23 20 19 21 21 19 16 19 18 17 19 19
37 28 51 52 51 26 38 20 13 11 14 9 10 34 30 30 30 40 41 42 39 38 17 11 13 12 6 8 9 10 5 4 19 21 20 18 22 16 13 16 18 19 19 19 16 13 9 9 18 17 17 13 8 13
35 43 45 48 48 25 17 20 10 12 14 25 24 31 28 30 35 37 36 36 28 31 30 12 14 18 10 8 6 7 7 9 8 9 14 17 20 17 15 17 16 17 18 18 12 14 13 21 17 11 6 11 10 1
40 39 37 36 35 16 12 13 12 11 19 25 30 26 27 29 30 30 31 29 26 26 23 18 13 9 8 11 19 25 28 22 17 19 20 21 21 20 19 18 22 24 25 24 25 30 25 23 22 26 27 27 24 21
29 23 29 22 28 8 8 8 10 9 14 18 27 24 26 30 31 33 38 39 38 40 28 14 18 25 26 26 26 28 25 23 18 20 20 24 24 24 27 24 23 23 24 25 25 28 23 22 22 24 23 21 24 25
17 20 14 20 11 13 8 11 9 10 11 14 21 15 26 33 40 38 45 38 42 46 29 30 31 30 28 28 31 32 31 27 25 24 22 26 25 24 24 22 21 21 22 21 22 22 22 22 25 27 25 23 23 23
20 20 13 14 12 9 11 14 7 10 9 11 27 28 18 24 26 35 31 32 17 22 24 32 37 40 43 43 41 40 38 36 26 21 18 17 16 14 16 19 19 20 20 21 22 23 23 23 24 25 23 25 23 22
22 17 10 10 8 9 7 11 6 9 8 8 14 8 8 14 12 13 9 17 27 35 31 32 31 34 35 38 43 45 45 30 28 26 20 16 14 13 11 11 13 15 19 20 20 22 24 26 28 27 25 26 24 22
14 11 6 7 10 5 6 9 7 6 7 5 6 6 6 8 11 17 16 21 17 26 36 41 41 37 38 41 45 46 44 36 29 23 22 23 13 10 13 12 11 14 17 22 26 29 31 32 31 29 27 28 26 25
10 9 7 6 2 5 3 5 5 4 5 4 5 4 7 4 6 9 15 26 36 39 36 33 33 36 38 38 40 41 42 40 34 30 28 26 25 24 18 17 20 15 19 27 32 35 36 35 32 31 30 29 28 29
5 5 8 16 9 9 10 8 7 7 5 5 7 6 2 1 11 10 10 26 27 27 30 33 33 34 35 37 38 40 39 35 29 25 24 25 25 24 23 24 27 28 35 32 34 35 32 32 31 30 30 29 29 30
8 11 7 6 7 10 8 5 5 6 5 6 7 6 9 9 11 9 19 21 25 25 27 29 31 34 34 34 34 35 33 30 28 24 18 16 17 22 26 28 28 28 29 28 30 30 30 31 31 31 32 32 32 34
10 15 14 15 8 9 11 14 10 11 13 14 10 8 7 9 8 14 18 20 20 23 27 27 30 29 31 33 34 33 29 30 29 26 18 7 17 24 26 24 27 32 28 28 31 28 27 33 34 29 29 29 29 29
9 19 15 18 17 10 15 15 18 20 28 27 5 8 8 10 22 19 20 17 23 32 25 19 24 28 31 32 31 30 28 30 32 31 27 25 27 29 29 29 29 29 28 27 32 28 33 33 26 23 25 28 28 28
24 21 11 15 24 11 21 22 26 25 30 27 24 31 33 22 8 8 14 15 17 21 26 29 30 32 35 35 32 28 24 25 27 28 28 29 29 29 29 30 29 28 27 27 26 25 33 30 25 25 28 28 30 31
19 25 19 16 15 13 18 18 20 23 22 24 20 20 14 13 10 16 17 20 25 27 28 31 31 31 32 31 29 24 22 22 23 27 28 22 23 24 24 25 25 26 27 26 26 27 30 30 29 29 30 31 31 32
12 12 15 6 13 11 17 8 5 10 8 8 9 7 10 7 3 6 23 27 26 29 29 29 29 29 27 24 22 21 24 19 19 29 34 26 21 20 22 24 24 27 26 25 26 27 28 28 29 30 31 32 33 35
9 20 18 16 8 5 13 12 8 7 6 5 6 3 4 10 9 14 17 27 25 27 27 29 26 24 23 22 23 21 21 20 29 30 37 31 29 25 24 23 24 29 29 27 26 27 27 29 29 30 31 33 33 34
Wind_Direction_500mb
329 325 324 325 328 325 318 314 309 309 305 300 292 291 286 285 274 262 270 250 252 258 266 271 272 277 281 276 264 327 240 171 209 236 231 232 235 233 233 228 211 203 202 218 219 232 240 108 204 251 356 321 306 302
335 333 334 334 332 328 323 318 313 313 306 300 305 298 287 292 288 263 275 278 278 240 255 282 267 265 256 255 271 282 296 344 281 276 354 325 309 288 233 251 205 208 207 206 216 218 84 88 86 63 8 339 329 306
341 341 340 340 343 343 344 337 333 325 311 304 306 296 297 293 285 279 283 268 268 283 284 267 267 270 244 240 235 254 252 219 233 339 314 269 280 289 257 255 196 227 207 206 176 129 107 94 88 93 66 73 39 80
342 348 348 345 353 353 355 357 353 349 341 332 323 302 298 297 298 279 267 264 254 272 284 271 332 263 248 226 218 216 228 159 339 307 295 259 268 353 265 330 352 352 278 157 101 108 101 85 90 96 76 73 65 50
354 355 358 357 354 353 352 346 335 338 342 338 337 320 305 309 305 290 281 269 257 245 298 302 300 287 236 226 212 212 226 250 275 298 310 273 286 343 297 239 4 3 348 200 177 139 91 110 108 98 98 79 68 74
6 6 5 5 3 359 354 353 350 343 336 330 322 327 325 325 319 295 276 287 282 251 289 308 333 239 205 179 189 196 211 223 212 252 248 255 291 307 313 36 17 325 309 7 73 111 106 98 92 78 73 63 71 70
6 3 3 3 3 2 355 355 351 343 337 329 317 312 308 308 305 283 285 306 307 231 277 287 276 224 171 167 180 186 194 189 188 207 246 271 297 352 353 42 44 15 73 95 110 121 108 107 84 82 61 46 48 59
2 2 359 358 0 360 360 356 349 344 334 323 313 307 301 296 292 279 281 284 234 246 253 271 285 293 177 173 163 173 172 196 200 222 210 123 29 311 53 352 104 83 82 74 86 99 100 98 78 71 69 50 31 40
1 1 3 4 7 3 358 356 349 338 335 331 323 312 305 250 257 270 298 325 227 222 286 274 294 297 214 121 174 177 192 195 227 225 51 144 101 13 57 41 68 95 91 98 95 89 81 75 73 73 71 66 10 28
2 2 2 6 3 358 350 347 349 347 349 7 0 296 291 335 290 292 271 186 214 215 222 261 237 276 350 238 152 176 192 145 165 70 110 66 43 26 51 64 78 84 89 97 83 78 76 66 53 54 54 57 1 19
7 11 7 1 357 349 341 339 343 348 3 347 319 290 305 302 296 244 276 223 212 230 221 290 311 320 3 4 355 45 172 89 97 138 189 82 89 74 82 82 88 93 93 84 88 91 96 93 86 80 79 148 226 167
2 2 360 359 358 355 350 346 342 344 317 299 308 310 327 316 304 297 302 300 278 339 355 324 302 309 4 336 266 156 199 75 92 109 87 83 98 142 103 96 93 91 99 97 87 81 91 140 129 123 154 169 88 115
354 351 350 357 358 354 352 352 349 346 0 358 334 325 345 342 339 324 341 255 318 333 4 337 338 291 148 203 255 222 139 75 106 35 60 89 202 171 147 145 134 125 115 94 78 72 78 74 89 101 99 79 121 113
351 349 353 1 357 351 350 353 0 8 30 27 358 8 20 351 322 330 328 321 300 316 23 335 318 265 246 113 23 9 64 42 76 59 108 164 169 161 128 139 133 135 113 104 101 92 78 61 61 57 70 81 87 67
345 347 358 356 350 351 355 359 20 28 17 40 24 8 342 302 296 268 311 355 0 352 8 360 298 359 353 18 31 351 60 53 11 49 92 136 141 123 124 128 121 108 107 105 88 75 65 70 74 62 63 72 77 84
345 3 339 347 354 354 358 16 14 346 7 46 84 9 331 342 2 9 4 4 352 332 328 337 350 24 32 25 7 20 42 37 330 17 110 119 130 131 115 109 99 103 113 108 98 78 68 68 72 85 66 56 53 48
349 333 342 347 355 360 18 22 6 19 20 16 339 14 360 360 1 1 354 358 345 15 10 43 34 29 92 25 31 10 338 291 329 31 87 104 112 99 96 98 94 87 89 96 100 73 54 61 58 59 38 9 34 42
329 330 341 346 353 15 11 20 10 34 25 23 11 12 360 12 4 3 7 12 17 16 40 59 47 35 43 21 35 7 360 26 133 120 97 83 77 82 83 81 84 87 62 59 76 99 41 23 49 73 111 32 282 169
329 333 343 349 357 31 7 19 10 16 33 30 9 13 18 18 21 21 14 34 24 34 47 49 47 32 41 27 28 32 34 35 59 70 68 62 61 55 59 68 75 79 78 68 52 59 63 47 30 18 13 6 12 25
334 346 358 7 24 13 3 20 7 9 17 2 19 21 26 24 25 27 37 41 56 61 64 67 61 49 35 37 25 27 22 23 47 67 58 63 81 69 69 73 74 80 75 65 58 45 41 30 19 8 5 354 342 345
29 348 18 34 23 40 32 2 31 23 342 7 17 19 33 34 35 33 20 46 46 37 42 38 45 43 40 38 35 30 26 31 45 63 51 64 60 67 71 71 70 63 57 49 39 34 23 13 359 353 345 339 329 320
355 13 33 7 20 25 39 25 22 4 347 21 16 37 25 29 32 22 33 43 40 32 36 35 42 51 54 49 43 34 41 52 59 49 48 59 76 66 51 45 40 37 33 29 20 14 7 358 351 351 344 338 336 332
9 13 14 0 4 31 33 23 50 35 38 33 42 56 41 54 45 31 49 27 39 37 45 63 71 61 56 47 40 34 27 22 44 46 44 53 57 50 46 35 28 22 16 15 5 0 354 350 344 346 342 342 339 337
13 15 22 20 21 16 5 31 36 75 87 47 42 3 60 48 52 61 69 67 81 70 48 39 39 38 37 31 30 26 20 17 14 31 21 6 12 30 350 355 3 7 1 358 355 348 343 339 336 334 336 338 339 338
350 15 350 330 335 316 58 54 70 55 75 26 33 58 38 45 83 70 56 36 35 34 30 33 37 33 28 23 20 17 14 14 9 8 11 1 354 349 7 17 56 35 4 349 343 340 337 335 333 332 329 331 334 329
16 39 12 357 12 346 4 8 26 1 356 338 31 331 56 340 61 52 40 20 35 31 27 24 19 17 20 16 11 9 6 7 8 11 11 13 16 14 4 352 340 345 354 347 343 340 338 337 334 331 327 326 332 334
353 10 358 330 322 328 329 22 25 337 359 7 309 330 7 47 57 60 42 30 32 24 21 23 20 11 5 2 0 360 3 4 2 352 347 359 19 23 19 7 1 347 350 343 349 348 343 341 336 331 325 321 318 318
348 349 352 354 360 19 346 355 21 18 359 3 15 11 56 39 60 37 39 35 30 21 16 357 353 356 353 354 351 352 354 356 356 355 350 90 26 13 7 360 351 354 349 344 346 345 340 341 337 333 333 333 331 328
337 20 3 337 40 36 3 33 11 19 349 334 26 66 79 79 73 57 23 347 315 323 6 356 351 352 351 351 353 355 358 2 7 9 10 4 359 353 349 347 346 345 344 344 342 347 348 352 354 351 347 342 338 336
3 356 20 33 41 41 30 45 50 46 41 52 91 103 98 101 105 30 27 24 10 359 355 352 353 354 353 353 355 0 13 13 15 13 3 357 351 341 342 347 347 349 349 351 352 350 353 4 358 354 350 346 343 340
15 17 34 55 57 34 85 86 71 60 68 83 89 112 131 134 107 54 22 359 352 352 352 352 355 357 357 0 2 1 3 3 6 7 5 358 346 349 359 356 357 356 357 359 358 357 356 357 355 351 349 346 342 339
9 13 4 354 102 105 137 126 71 81 88 98 123 136 151 177 121 41 8 10 5 3 0 357 357 358 357 2 1 358 3 350 350 355 1 2 6 11 13 2 5 2 1 359 356 354 353 352 350 347 344 341 340 339
0 34 15 3 13 5 133 150 177 141 173 102 90 5 42 62 70 20 1 357 358 357 357 354 349 350 351 358 356 358 356 341 345 347 357 16 29 41 34 13 14 7 2 356 352 349 349 350 348 347 346 344 342 340
Wind_Speed_850mb
63 64 61 59 58 56 51 46 40 36 31 29 29 28 27 23 25 26 27 26 38 17 41 59 56 58 53 36 17 20 12 8 7 15 21 29 31 38 41 47 51 45 41 37 37 43 46 14 14 13 15 33 35 33
58 54 50 51 56 52 43 37 34 29 26 26 28 27 20 20 20 22 34 31 24 43 38 45 51 52 42 50 47 35 21 5 9 8 6 12 9 17 37 30 50 45 40 33 36 27 17 21 24 14 16 19 18 13
49 49 47 47 53 42 34 30 26 25 24 27 25 18 23 22 21 26 29 24 29 24 53 56 48 37 42 61 53 37 37 13 8 20 7 6 11 8 13 20 36 13 39 35 22 25 19 27 24 22 21 10 16 24
44 49 42 41 43 39 33 28 23 24 23 21 22 22 19 19 16 17 22 22 23 16 15 27 9 6 15 26 50 53 41 10 15 24 16 6 10 14 5 9 7 11 19 18 33 31 37 33 30 24 21 21 29 34
45 42 37 39 41 39 34 30 25 30 25 24 16 15 15 18 17 19 21 20 24 18 17 43 46 26 27 35 30 45 46 35 27 12 5 6 7 6 11 4 10 14 12 3 15 38 41 35 33 32 37 31 31 32
43 40 39 38 43 41 37 33 28 24 25 16 16 17 13 13 12 17 6 3 9 21 20 10 23 8 6 26 28 33 33 27 15 1 9 13 12 12 7 7 13 16 32 17 24 48 58 47 45 37 34 29 31 29
40 37 39 40 42 41 37 34 28 28 26 22 20 21 16 13 14 15 10 14 19 7 6 10 9 13 14 26 30 25 26 18 13 5 14 7 8 23 5 5 12 16 35 37 40 48 37 24 24 38 36 29 24 25
41 41 40 41 39 36 36 37 37 33 32 27 24 21 21 24 19 12 11 19 10 10 10 6 11 7 34 31 22 29 24 22 20 18 9 1 7 9 3 9 24 27 47 50 44 42 42 35 30 35 40 45 32 33
41 42 42 43 39 39 38 36 38 37 31 24 20 18 11 6 8 7 17 16 11 12 6 6 5 7 25 9 9 32 32 17 16 3 5 4 4 5 12 20 25 21 24 36 45 53 50 48 41 30 37 27 31 25
40 37 38 37 37 39 44 48 48 38 20 18 17 8 7 6 17 19 7 9 8 11 11 7 22 8 22 13 17 18 21 5 3 8 4 5 6 17 19 25 35 38 27 20 31 32 47 57 40 28 31 30 6 22
33 34 37 43 50 56 55 52 45 36 22 15 11 9 19 22 10 7 5 8 12 7 14 9 17 13 21 8 4 11 5 6 1 9 0 5 5 5 33 38 34 38 37 39 41 37 38 43 24 8 8 3 7 7
34 38 44 50 60 62 55 48 42 26 20 17 16 17 15 8 7 7 8 8 6 4 9 4 8 14 7 7 7 7 5 1 8 7 7 4 6 22 23 41 40 35 35 36 29 27 17 11 13 9 10 7 1 6
40 46 47 51 69 66 51 40 36 29 12 6 8 9 13 9 5 10 11 1 8 18 18 15 10 9 8 13 10 11 10 6 15 7 7 3 13 14 23 27 22 23 21 21 23 16 10 11 15 17 14 9 12 10
43 46 43 59 71 62 44 36 31 16 10 6 10 9 8 8 8 8 18 15 15 17 18 7 10 7 21 2 7 14 11 8 6 7 4 8 17 13 17 23 27 22 16 19 20 20 16 16 21 18 19 17 15 14
46 42 46 62 62 49 40 28 29 20 11 9 9 11 8 18 32 33 27 32 32 30 24 10 10 16 12 10 7 9 10 9 11 5 9 25 23 13 16 19 20 19 15 18 18 19 17 16 18 20 21 17 14 13
48 27 39 57 55 39 38 20 23 12 4 4 3 8 15 23 33 43 44 43 39 30 16 3 10 7 16 10 14 16 8 7 8 5 24 23 29 20 14 16 24 21 23 20 19 21 21 19 16 19 18 17 19 19
37 28 51 52 51 26 38 20 13 11 14 9 10 34 30 30 30 40 41 42 39 38 17 11 13 12 6 8 9 10 5 4 19 21 20 18 22 16 13 16 18 19 19 19 16 13 9 9 18 17 17 13 8 13
35 43 45 48 48 25 17 20 10 12 14 25 24 31 28 30 35 37 36 36 28 31 30 12 14 18 10 8 6 7 7 9 8 9 14 17 20 17 15 17 16 17 18 18 12 14 13 21 17 11 6 11 10 1
40 39 37 36 35 16 12 13 12 11 19 25 30 26 27 29 30 30 31 29 26 26 23 18 13 9 8 11 19 25 28 22 17 19 20 21 21 20 19 18 22 24 25 24 25 30 25 23 22 26 27 27 24 21
29 23 29 22 28 8 8 8 10 9 14 18 27 24 26 30 31 33 38 39 38 40 28 14 18 25 26 26 26 28 25 23 18 20 20 24 24 24 27 24 23 23 24 25 25 28 23 22 22 24 23 21 24 25
17 20 14 20 11 13 8 11 9 10 11 14 21 15 26 33 40 38 45 38 42 46 29 30 31 30 28 28 31 32 31 27 25 24 22 26 25 24 24 22 21 21 22 21 22 22 22 22 25 27 25 23 23 23
20 20 13 14 12 9 11 14 7 10 9 11 27 28 18 24 26 35 31 32 17 22 24 32 37 40 43 43 41 40 38 36 26 21 18 17 16 14 16 19 19 20 20 21 22 23 23 23 24 25 23 25 23 22
22 17 10 10 8 9 7 11 6 9 8 8 14 8 8 14 12 13 9 17 27 35 31 32 31 34 35 38 43 45 45 30 28 26 20 16 14 13 11 11 13 15 19 20 20 22 24 26 28 27 25 26 24 22
14 11 6 7 10 5 6 9 7 6 7 5 6 6 6 8 11 17 16 21 17 26 36 41 41 37 38 41 45 46 44 36 29 23 22 23 13 10 13 12 11 14 17 22 26 29 31 32 31 29 27 28 26 25
10 9 7 6 2 5 3 5 5 4 5 4 5 4 7 4 6 9 15 26 36 39 36 33 33 36 38 38 40 41 42 40 34 30 28 26 25 24 18 17 20 15 19 27 32 35 36 35 32 31 30 29 28 29
5 5 8 16 9 9 10 8 7 7 5 5 7 6 2 1 11 10 10 26 27 27 30 33 33 34 35 37 38 40 39 35 29 25 24 25 25 24 23 24 27 28 35 32 34 35 32 32 31 30 30 29 29 30
8 11 7 6 7 10 8 5 5 6 5 6 7 6 9 9 11 9 19 21 25 25 27 29 31 34 34 34 34 35 33 30 28 24 18 16 17 22 26 28 28 28 29 28 30 30 30 31 31 31 32 32 32 34
10 15 14 15 8 9 11 14 10 11 13 14 10 8 7 9 8 14 18 20 20 23 27 27 30 29 31 33 34 33 29 30 29 26 18 7 17 24 26 24 27 32 28 28 31 28 27 33 34 29 29 29 29 29
9 19 15 18 17 10 15 15 18 20 28 27 5 8 8 10 22 19 20 17 23 32 25 19 24 28 31 32 31 30 28 30 32 31 27 25 27 29 29 29 29 29 28 27 32 28 33 33 26 23 25 28 28 28
24 21 11 15 24 11 21 22 26 25 30 27 24 31 33 22 8 8 14 15 17 21 26 29 30 32 35 35 32 28 24 25 27 28 28 29 29 29 29 30 29 28 27 27 26 25 33 30 25 25 28 28 30 31
19 25 19 16 15 13 18 18 20 23 22 24 20 20 14 13 10 16 17 20 25 27 28 31 31 31 32 31 29 24 22 22 23 27 28 22 23 24 24 25 25 26 27 26 26 27 30 30 29 29 30 31 31 32
12 12 15 6 13 11 17 8 5 10 8 8 9 7 10 7 3 6 23 27 26 29 29 29 29 29 27 24 22 21 24 19 19 29 34 26 21 20 22 24 24 27 26 25 26 27 28 28 29 30 31 32 33 35
9 20 18 16 8 5 13 12 8 7 6 5 6 3 4 10 9 14 17 27 25 27 27 29 26 24 23 22 23 21 21 20 29 30 37 31 29 25 24 23 24 29 29 27 26 27 27 29 29 30 31 33 33 34
Wind_Direction_850mb
329 325 324 325 328 325 318 314 309 309 305 300 292 291 286 285 274 262 270 250 252 258 266 271 272 277 281 276 264 327 240 171 209 236 231 232 235 233 233 228 211 203 202 218 219 232 240 108 204 251 356 321 306 302
335 333 334 334 332 328 323 318 313 313 306 300 305 298 287 292 288 263 275 278 278 240 255 282 267 265 256 255 271 282 296 344 281 276 354 325 309 288 233 251 205 208 207 206 216 218 84 88 86 63 8 339 329 306
341 341 340 340 343 343 344 337 333 325 311 304 306 296 297 293 285 279 283 268 268 283 284 267 267 270 244 240 235 254 252 219 233 339 314 269 280 289 257 255 196 227 207 206 176 129 107 94 88 93 66 73 39 80
342 348 348 345 353 353 355 357 353 349 341 332 323 302 298 297 298 279 267 264 254 272 284 271 332 263 248 226 218 216 228 159 339 307 295 259 268 353 265 330 352 352 278 157 101 108 101 85 90 96 76 73 65 50
354 355 358 357 354 353 352 346 335 338 342 338 337 320 305 309 305 290 281 269 257 245 298 302 300 287 236 226 212 212 226 250 275 298 310 273 286 343 297 239 4 3 348 200 177 139 91 110 108 98 98 79 68 74
6 6 5 5 3 359 354 353 350 343 336 330 322 327 325 325 319 295 276 287 282 251 289 308 333 239 205 179 189 196 211 223 212 252 248 255 291 307 313 36 17 325 309 7 73 111 106 98 92 78 73 63 71 70
6 3 3 3 3 2 355 355 351 343 337 329 317 312 308 308 305 283 285 306 307 231 277 287 276 224 171 167 180 186 194 189 188 207 246 271 297 352 353 42 44 15 73 95 110 121 108 107 84 82 61 46 48 59
2 2 359 358 0 360 360 356 349 344 334 323 313 307 301 296 292 279 281 284 234 246 253 271 285 293 177 173 163 173 172 196 200 222 210 123 29 311 53 352 104 83 82 74 86 99 100 98 78 71 69 50 31 40
1 1 3 4 7 3 358 356 349 338 335 331 323 312 305 250 257 270 298 325 227 222 286 274 294 297 214 121 174 177 192 195 227 225 51 144 101 13 57 41 68 95 91 98 95 89 81 75 73 73 71 66 10 28
2 2 2 6 3 358 350 347 349 347 349 7 0 296 291 335 290 292 271 186 214 215 222 261 237 276 350 238 152 176 192 145 165 70 110 66 43 26 51 64 78 84 89 97 83 78 76 66 53 54 54 57 1 19
7 11 7 1 357 349 341 339 343 348 3 347 319 290 305 302 296 244 276 223 212 230 221 290 311 320 3 4 355 45 172 89 97 138 189 82 89 74 82 82 88 93 93 84 88 91 96 93 86 80 79 148 226 167
2 2 360 359 358 355 350 346 342 344 317 299 308 310 327 316 304 297 302 300 278 339 355 324 302 309 4 336 266 156 199 75 92 109 87 83 98 142 103 96 93 91 99 97 87 81 91 140 129 123 154 169 88 115
354 351 350 357 358 354 352 352 349 346 0 358 334 325 345 342 339 324 341 255 318 333 4 337 338 291 148 203 255 222 139 75 106 35 60 89 202 171 147 145 134 125 115 94 78 72 78 74 89 101 99 79 121 113
351 349 353 1 357 351 350 353 0 8 30 27 358 8 20 351 322 330 328 321 300 316 23 335 318 265 246 113 23 9 64 42 76 59 108 164 169 161 128 139 133 135 113 104 101 92 78 61 61 57 70 81 87 67
345 347 358 356 350 351 355 359 20 28 17 40 24 8 342 302 296 268 311 355 0 352 8 360 298 359 353 18 31 351 60 53 11 49 92 136 141 123 124 128 121 108 107 105 88 75 65 70 74 62 63 72 77 84
345 3 339 347 354 354 358 16 14 346 7 46 84 9 331 342 2 9 4 4 352 332 328 337 350 24 32 25 7 20 42 37 330 17 110 119 130 131 115 109 99 103 113 108 98 78 68 68 72 85 66 56 53 48
349 333 342 347 355 360 18 22 6 19 20 16 339 14 360 360 1 1 354 358 345 15 10 43 34 29 92 25 31 10 338 291 329 31 87 104 112 99 96 98 94 87 89 96 100 73 54 61 58 59 38 9 34 42
329 330 341 346 353 15 11 20 10 34 25 23 11 12 360 12 4 3 7 12 17 16 40 59 47 35 43 21 35 7 360 26 133 120 97 83 77 82 83 81 84 87 62 59 76 99 41 23 49 73 111 32 282 169
329 333 343 349 357 31 7 19 10 16 33 30 9 13 18 18 21 21 14 34 24 34 47 49 47 32 41 27 28 32 34 35 59 70 68 62 61 55 59 68 75 79 78 68 52 59 63 47 30 18 13 6 12 25
334 346 358 7 24 13 3 20 7 9 17 2 19 21 26 24 25 27 37 41 56 61 64 67 61 49 35 37 25 27 22 23 47 67 58 63 81 69 69 73 74 80 75 65 58 45 41 30 19 8 5 354 342 345
29 348 18 34 23 40 32 2 31 23 342 7 17 19 33 34 35 33 20 46 46 37 42 38 45 43 40 38 35 30 26 31 45 63 51 64 60 67 71 71 70 63 57 49 39 34 23 13 359 353 345 339 329 320
355 13 33 7 20 25 39 25 22 4 347 21 16 37 25 29 32 22 33 43 40 32 36 35 42 51 54 49 43 34 41 52 59 49 48 59 76 66 51 45 40 37 33 29 20 14 7 358 351 351 344 338 336 332
9 13 14 0 4 31 33 23 50 35 38 33 42 56 41 54 45 31 49 27 39 37 45 63 71 61 56 47 40 34 27 22 44 46 44 53 57 50 46 35 28 22 16 15 5 0 354 350 344 346 342 342 339 337
13 15 22 20 21 16 5 31 36 75 87 47 42 3 60 48 52 61 69 67 81 70 48 39 39 38 37 31 30 26 20 17 14 31 21 6 12 30 350 355 3 7 1 358 355 348 343 339 336 334 336 338 339 338
350 15 350 330 335 316 58 54 70 55 75 26 33 58 38 45 83 70 56 36 35 34 30 33 37 33 28 23 20 17 14 14 9 8 11 1 354 349 7 17 56 35 4 349 343 340 337 335 333 332 329 331 334 329
16 39 12 357 12 346 4 8 26 1 356 338 31 331 56 340 61 52 40 20 35 31 27 24 19 17 20 16 11 9 6 7 8 11 11 13 16 14 4 352 340 345 354 347 343 340 338 337 334 331 327 326 332 334
353 10 358 330 322 328 329 22 25 337 359 7 309 330 7 47 57 60 42 30 32 24 21 23 20 11 5 2 0 360 3 4 2 352 347 359 19 23 19 7 1 347 350 343 349 348 343 341 336 331 325 321 318 318
348 349 352 354 360 19 346 355 21 18 359 3 15 11 56 39 60 37 39 35 30 21 16 357 353 356 353 354 351 352 354 356 356 355 350 90 26 13 7 360 351 354 349 344 346 345 340 341 337 333 333 333 331 328
337 20 3 337 40 36 3 33 11 19 349 334 26 66 79 79 73 57 23 347 315 323 6 356 351 352 351 351 353 355 358 2 7 9 10 4 359 353 349 347 346 345 344 344 342 347 348 352 354 351 347 342 338 336
3 356 20 33 41 41 30 45 50 46 41 52 91 103 98 101 105 30 27 24 10 359 355 352 353 354 353 353 355 0 13 13 15 13 3 357 351 341 342 347 347 349 349 351 352 350 353 4 358 354 350 346 343 340
15 17 34 55 57 34 85 86 71 60 68 83 89 112 131 134 107 54 22 359 352 352 352 352 355 357 357 0 2 1 3 3 6 7 5 358 346 349 359 356 357 356 357 359 358 357 356 357 355 351 349 346 342 339
9 13 4 354 102 105 137 126 71 81 88 98 123 136 151 177 121 41 8 10 5 3 0 357 357 358 357 2 1 358 3 350 350 355 1 2 6 11 13 2 5 2 1 359 356 354 353 352 350 347 344 341 340 339
0 34 15 3 13 5 133 150 177 141 173 102 90 5 42 62 70 20 1 357 358 357 357 354 349 350 351 358 356 358 356 341 345 347 357 16 29 41 34 13 14 7 2 356 352 349 349 350 348 347 346 344 342 340